Location: Newark
(35.6799°N, 139.7636°E)
Time: 05:04:04
(UTC+00:00)

Vanguard 1 Rocket - Pass Details

Date: 18 December 2019
Orbit: 650 x 4226 km, 34.3° (Epoch: 19 January)

Event Time Altitude Azimuth Distance (km) Brightness Sun altitude
Rises 12:11:31 0° 269° (W) 8,105 12.7 -56.2°
Reaches altitude 10° 12:17:40 10° 269° (W) 6,712 12.1 -57.4°
Enters shadow 12:31:07 46° 267° (W) 3,400 10.2 -60.1°
